Welcome to the New NWS' Forecast!
Most changes are behind the scenes, but click here for differences you might notice.
Latest weather observations around

Burlington/Mount Vernon, Skagit Regional Airport (KBVS)

Using English Units (Switch to International System of Units)
Date/ Time (PDT) Wind (mph) Vis. (mi) Weather Sky Cond. Temp (°F) Rel. Humidity Wind Chill (°F) Heat Index (°F) Pressure Precip. (in)
Air Dwpt 6 hour Altimeter (inHg) Sea level (inHg) 1 hr 3 hr 6 hr
Max Min
Aug 15 03:35 Calm 0.25 Fog OVC060 54 54     100%     29.88        
Aug 15 03:15 Calm 3 Fog/Mist OVC055 59 59     100%     29.88        
Aug 15 02:55 Calm 0.25 Fog OVC060 57 57     100%     29.88        
Aug 15 02:35 Calm 3 Fog/Mist FEW050 BKN060 OVC075 59 59     100%     29.87        
Aug 15 02:15 Calm 2 Fog/Mist FEW049 BKN055 OVC075 57 57     100%     29.87        
Aug 15 01:55 Calm 5 Fog/Mist FEW048 OVC060 59 59     100%     29.86        
Aug 15 01:35 Calm 3 Fog/Mist FEW024 FEW037 OVC047 59 59     100%     29.86        
Aug 15 01:15 Calm 5 Fog/Mist FEW023 FEW037 OVC046 59 59     100%     29.86        
Aug 15 00:55 Calm 5 Fog/Mist FEW022 SCT038 OVC045 57 57     100%     29.86        
Aug 15 00:35 NW 3 5 Fog/Mist SCT022 BKN040 OVC045 57 57     100%     29.86        
Aug 15 00:15 Calm 5 Fog/Mist FEW022 BKN028 OVC039 59 57     94%     29.86        
Aug 14 23:55 Calm 6 Fog/Mist BKN025 BKN036 OVC043 57 55     94%     29.86        
Aug 14 23:35 Calm 6 Fog/Mist BKN022 BKN026 OVC034 59 57     94%     29.85        
Aug 14 23:15 Calm 6 Fog/Mist FEW020 BKN026 OVC031 59 59     100%     29.85        
Aug 14 22:55 Calm 7 Cloudy SCT020 OVC028 59 59     100%     29.85        
Aug 14 22:35 Calm 6 Fog/Mist FEW023 BKN027 OVC040 59 59     100%     29.85        
Aug 14 22:15 Calm 7 Cloudy SCT025 BKN040 OVC050 59 57     94%     29.85        
Aug 14 21:55 Calm 7 Cloudy FEW025 BKN030 OVC050 61 59     94%     29.85        
Aug 14 21:35 Calm 7 Cloudy BKN024 BKN030 OVC039 63 59     88%     29.84        
Aug 14 21:15 Calm 7 Cloudy BKN023 OVC033 63 57     83%     29.84        
Aug 14 20:55 Calm 7 Mostly Cloudy FEW028 SCT034 BKN039 63 57     83%     29.84        
Aug 14 20:35 WNW 3 6 Haze FEW036 64 57     77%     29.84        
Aug 14 20:15 WNW 3 6 Haze CLR 66 57     73%     29.83        
Aug 14 19:55 WNW 6 5 Haze CLR 68 57     68%     29.83        
Aug 14 19:35 NW 6 5 Haze CLR 68 57     68%     29.83        
Aug 14 19:15 WNW 9 5 Haze CLR 70 57     64%     29.83        
Aug 14 18:55 WNW 8 5 Haze CLR 73 57     57%   73 29.84        
Aug 14 18:35 WNW 8 5 Haze CLR 73 57     57%   73 29.84        
Aug 14 18:15 WNW 10 5 Haze CLR 75 57     54%   75 29.85        
Aug 14 17:55 WNW 7 4 Haze CLR 75 57     54%   75 29.85        
Aug 14 17:35 WNW 11 5 Haze CLR 77 57     50%   77 29.85        
Aug 14 17:15 NW 13 5 Haze CLR 77 57     50%   77 29.86        
Aug 14 16:55 WNW 11 5 Haze CLR 77 57     50%   77 29.86        
Aug 14 16:35 NW 10 5 Haze CLR 79 57     48%   79 29.87        
Aug 14 16:15 WNW 10 4 Haze CLR 79 59     51%   79 29.87        
Aug 14 15:55 NW 10 5 Haze CLR 79 59     51%   79 29.88        
Aug 14 15:35 WNW 8 5 Haze CLR 77 59     54%   77 29.89        
Aug 14 15:15 WNW 10 5 Haze CLR 77 59     54%   77 29.89        
Aug 14 14:55 WNW 9 5 Haze   77 61     57%   77 29.9        
Notice The following observation data may not be complete
Aug 14 14:35 WNW 9   Clear            %     29.9        
Aug 14 14:15 NW 8 5 Haze CLR 77 61     57%   77 29.91        
Aug 14 13:55 WNW 7 6 Haze CLR 75 61     61%   75 29.92        
Aug 14 13:40 WNW 8 5 Haze CLR 75 61     61%   75 29.92        
May 15 01:55 Calm 10 Clear CLR 52 50     94%     29.88        
May 14 22:35 Calm 10 Clear CLR 59 54     82%     29.86        
May 14 17:55 W 7 10 Clear CLR 77 55     47%   77 29.85        
May 14 08:55 Calm 10 Clear CLR 68 52     56%     29.97        
May 14 05:15 Calm 10 Clear CLR 54 50     88%     29.95        
May 14 01:15 Calm 10 Clear CLR 57 52     82%     29.92        
May 13 23:15 WNW 5 10 Clear CLR 55 50     82%     29.91        
May 13 12:35 WNW 10 10 Clear CLR 70 55     60%     29.96        
May 13 02:15 Calm 10 Clear CLR 52 50     94%     29.98        
May 12 21:15 Calm 10 Clear CLR 59 50     72%     29.97        
May 12 19:35 WNW 7 10 Clear CLR 64 52     64%     29.97        
May 12 19:15 W 7 10 Clear CLR 68 50     53%     29.97        
May 12 13:35 WNW 11 9 Clear CLR 63 54     72%     30.09        
May 12 12:55 WNW 11 10 Clear CLR 63 54     72%     30.1        
May 12 11:55 NW 11 10 Clear CLR 63 55     77%     30.13        
May 12 08:35 WNW 8 10 Clear CLR 55 52     88%     30.19        
May 12 08:15 WNW 3 10 Clear CLR 55 52     88%     30.19        
May 12 00:35 Calm 10 Clear CLR 48 46     93%     30.21        
May 11 21:55 Calm 10 Clear CLR 50 46     87%     30.21        
Jun 12 00:55 Calm 10 Clear CLR 52 48     87%     29.98        
Jun 11 20:15 SW 3 9 Clear CLR 61 50     68%     29.99        
Jun 11 17:15 WNW 9 9 Clear CLR 68 48     49%     29.99        
Jun 11 08:15 SSE 3 9 Cloudy FEW016 BKN049 OVC060 55 50     82%     30.04        
Jun 11 04:55 SSE 5 10 Cloudy OVC012 52 50     94%     30.01        
Jun 10 12:35 SSW 9 10 Mostly Cloudy FEW026 SCT034 BKN046 59 46     63%     29.86        
Jun 10 09:15 3 10 Cloudy BKN021 OVC026 55 46     72%     29.87        
Jun 10 06:35 SSE 5 10 Cloudy BKN022 BKN028 OVC055 52 48     87%     29.85        
Jun 10 06:15 SSE 5 10 Cloudy BKN021 BKN029 OVC055 52 48     87%     29.85        
Jun 10 03:15 SSE 7 10 Cloudy FEW029 OVC041 52 48     87%     29.85        
Jun 09 22:55 SE 6 10 Cloudy FEW027 OVC060 54 48     82%     29.85        
Jun 09 13:35 S 7 9 Mostly Cloudy SCT040 BKN065 63 48     59%     29.85        
Jun 09 10:15 SE 8 4 Haze BKN031 BKN040 54 48     82%     29.9        
Jun 08 17:55 Calm 4 Haze FEW029 FEW037 BKN044 54 50     88%     29.89   0    
Jun 08 14:35 SSW 6 1.75 Fog/Mist FEW017 BKN025 OVC031 55 54     94%     29.79        
Notice The following observation data may not be complete
Jun 08 10:35   7 Clear CLR          %              
Jun 08 10:15 SE 10 5 Fog/Mist CLR 59 57     94%     29.65        
Jun 08 06:15 Calm 4 Fog/Mist OVC039 54 54     100%     29.62        
Jun 08 05:35 Calm 4 Fog/Mist BKN043 BKN048 OVC060 54 54     100%     29.63        
Jun 08 02:35 S 6 5 Haze FEW034 SCT044 BKN060 55 50     82%     29.71        
Notice The following observation data may not be complete
Jun 07 17:15   8 Clear CLR          %              
Notice The following observation data may not be complete
Jun 07 12:35   9 Clear CLR          %              
Jun 07 11:55 WNW 6 8 Clear CLR 73 54     50%   73 29.74        
Jun 07 09:35 Calm 9 Clear   64 48     56%     29.8        
Jun 05 23:55 Calm 10 Clear CLR 52 45     76%     30.07        
Jun 05 22:55 Calm 10 Clear CLR 52 45     76%     30.07        
Jun 05 18:35 WNW 9 10 Clear CLR 64 43     45%     30.06